Flag for U.S.A. Weather past 2 weeks in Colorado Springs, Colorado, U.S.A.

Now
83 °F

Broken clouds.


Feels Like: 81 °F
Forecast: 54 / 77 °F
Wind: 8 mph from Southeast

Location: City Of Colorado Springs Municipal Airport

Current Time: Jul 31, 2015 at 3:56:41 PM

Latest Report: Jul 31, 2015 at 2:54 PM


Visibility: 10 mi

Pressure: 30.08 "Hg (24.44 "Hg at 1831m altitude)

Humidity: 30%

Dew point: 48 °F

Location of Colorado SpringsLocation

Historic Weather in Colorado Springs — Graph

°F

Colorado Springs temperature yesterday

Maximum temperature yesterday: 83 °F (at 1:54 PM)
Minimum temperature yesterday: 56 °F (at 5:54 AM)
Average temperature yesterday: 70 °F

Past Weeks' High & Low Weather Summary

 TemperatureHumidityPressure
High89 °F (Jul 23, 2:54 PM)93% (Jul 22, 4:54 AM)30.43 "Hg (Jul 22, 4:54 AM)
Low56 °F (Jul 22, 4:54 AM)14% (Jul 17, 10:54 AM)29.66 "Hg (Jul 27, 5:54 PM)
Average72 °F48%29.93 "Hg
* Reported Jul 16 1:54 PM — Jul 31 1:54 PM, Colorado Springs, Weather by CustomWeather, © 2015

Note: Actual official high and low records may vary slightly from our data, if they occured in-between our weather recording intervals... More about our weather records

Advertising

Colorado Springs weather history for previous 24 hours

 ConditionsComfort  
Time TempWeatherWind HumidityBarometerVisibility
1:54 PM
Fri, Jul 31
83 °FBroken clouds.12 mph32%30.09 "Hg10 mi
12:54 PM80 °FBroken clouds.8 mph36%30.13 "Hg10 mi
11:54 AM77 °FScattered clouds.6 mph45%30.15 "Hg10 mi
10:54 AM76 °FPassing clouds.6 mph48%30.16 "Hg10 mi
9:54 AM75 °FPassing clouds.7 mph48%30.17 "Hg10 mi
8:54 AM73 °FPassing clouds.3 mph53%30.16 "Hg10 mi
7:54 AM67 °FPassing clouds.6 mph76%30.18 "Hg10 mi
6:54 AM60 °FPassing clouds.5 mph83%30.19 "Hg10 mi
5:54 AM58 °FPassing clouds.No wind84%30.18 "Hg10 mi
4:54 AM59 °FPassing clouds.No wind87%30.15 "Hg10 mi
3:54 AM58 °FPassing clouds.8 mph87%30.15 "Hg10 mi
2:54 AM60 °FPassing clouds.5 mph83%30.15 "Hg10 mi
1:54 AM62 °FPassing clouds.5 mph83%30.16 "Hg10 mi
12:54 AM63 °FPartly cloudy.6 mph81%30.19 "Hg10 mi
11:54 PM
Thu, Jul 30
66 °FPassing clouds.8 mph63%30.18 "Hg10 mi
10:54 PM67 °FPassing clouds.6 mph61%30.17 "Hg10 mi
9:54 PM65 °FPassing clouds.No wind66%30.18 "Hg10 mi
8:54 PM69 °FScattered clouds.3 mph57%30.17 "Hg10 mi
7:54 PM71 °FScattered clouds.5 mph55%30.16 "Hg10 mi
6:54 PM76 °FScattered clouds.15 mph43%30.13 "Hg10 mi
5:54 PM78 °FBroken clouds.16 mph42%30.12 "Hg10 mi
4:54 PM80 °FPartly sunny.15 mph35%30.11 "Hg10 mi
3:54 PM79 °FPartly sunny.16 mph38%30.12 "Hg10 mi
Weather by CustomWeather, © 2015

See weather overviewHow to use our weather pages